[[{"header":{"parameterUnit":"m.s-1","parameterCategory":1,"la1":30.2992,"la2":30.254,"lo1":-89.0895,"lo2":-89.0443,"dy":0.0025,"dx":0.0025,"nx":19,"ny":19,"refTime":"2026-03-26T09:00:00:Z","depth":0,"parameterNumber":2,"parameterNumberName":"U-component_of_WINDS"},"data":[0,0,0,-0.782,-0.782,-0.783,-0.783,-0.7845,-0.7845,0,0,0,0,0,0,0,0,0,0,0,-0.7819,-0.7819,-0.782,-0.782,-0.783,-0.783,-0.7845,-0.7845,0,0,0,0,0,0,0,0,0,0,0,-0.7819,-0.7819,-0.7819,-0.7821,-0.783,-0.783,-0.7845,-0.7837,0,0,0,0,0,0,0,0,0,0,-0.7827,-0.7827,-0.7819,-0.7819,-0.7821,-0.783,-0.783,-0.7836,-0.7837,-0.7842,0,-0.7846,0,-0.7845,-0.7846,-0.7846,0,0,0,-0.782,-0.7826,-0.7828,-0.7819,-0.7821,-0.7829,-0.7825,-0.7837,-0.7838,-0.7843,-0.7846,-0.7846,-0.7846,-0.7846,-0.7846,-0.7875,-0.7875,0,0,-0.7819,-0.7821,-0.7827,-0.7828,-0.7826,-0.7825,-0.7825,-0.7837,-0.7841,-0.7846,-0.7847,-0.7846,-0.7846,-0.7846,-0.7875,-0.7875,0,0,0,-0.7818,-0.7821,-0.7822,-0.7828,-0.7829,-0.7825,-0.7826,-0.784,-0.784,-0.7847,-0.7846,-0.7846,-0.7846,-0.7874,-0.7875,-0.7886,0,0,0,-0.7818,-0.782,-0.7822,-0.7823,-0.7829,-0.7835,-0.7828,-0.7839,-0.7841,-0.7846,-0.7846,-0.7847,-0.7874,-0.7875,-0.7885,-0.789,0,0,0,-0.7818,-0.782,-0.7822,-0.7823,-0.7827,-0.7834,-0.7835,-0.784,-0.784,-0.7846,-0.7847,-0.7874,-0.7874,-0.7884,-0.7889,-0.7899,0,0,0,-0.7818,-0.7831,-0.7822,-0.7837,-0.7827,-0.7841,-0.7835,-0.7845,-0.7851,-0.7846,-0.7874,-0.7875,-0.7884,-0.7889,-0.7898,-0.7908,-0.7912,0,0,-0.7836,-0.7833,-0.7842,-0.7834,-0.785,-0.7839,-0.7857,-0.7861,-0.7859,-0.787,-0.7871,-0.7885,-0.7889,-0.7899,-0.7933,-0.7936,0,0,0,-0.7848,-0.7854,-0.7858,-0.7864,-0.7867,-0.787,-0.7871,-0.7873,-0.7882,-0.7865,-0.7891,-0.7893,-0.7899,-0.7904,-0.7906,-0.7911,-0.7877,-0.7877,-0.7877,-0.7876,-0.7874,-0.7888,-0.7887,-0.7893,-0.7894,-0.7899,-0.7901,-0.7897,-0.7903,-0.7907,-0.7928,-0.7933,-0.7935,-0.794,-0.7911,-0.7911,-0.7911,-0.7911,-0.7902,-0.791,-0.7905,-0.7917,-0.7915,-0.7925,-0.7927,-0.7924,-0.7934,-0.7925,-0.793,-0.792,-0.7938,-0.7943,-0.7912,-0.7912,-0.7912,-0.7912,-0.7912,-0.792,-0.7924,-0.7926,-0.7935,-0.7942,-0.7941,-0.7951,-0.7949,-0.7947,-0.7951,-0.7955,-0.7955,-0.7955,-0.7953,-0.7953,-0.7953,-0.7954,-0.7954,-0.7954,-0.7939,-0.794,-0.7948,-0.7953,-0.7958,-0.7963,-0.7965,-0.7969,-0.7973,-0.7971,-0.7971,-0.7967,-0.794,-0.7934,-0.7955,-0.7955,-0.7954,-0.7954,-0.7954,-0.7967,-0.796,-0.7973,-0.7977,-0.7983,-0.7991,-0.7989,-0.7998,-0.8001,-0.8006,-0.8001,-0.7982,-0.7979,-0.7977,-0.7972,-0.8001,-0.8001,-0.8001,-0.8001,-0.7982,-0.7981,-0.7994,-0.8001,-0.8007,-0.8006,-0.8022,-0.8024,-0.8026,-0.8028,-0.8023,-0.8016,-0.8014,-0.8013,-0.801,-0.8005,-0.8042,-0.8042,-0.8042,-0.8,-0.7999,-0.8012,-0.8013,-0.8018,-0.8023,-0.8038,-0.8047,-0.8047,-0.8044,-0.803,-0.8028,-0.8016,-0.8012,-0.8008,-0.8004,-0.7995,0,0]},{"header":{"parameterUnit":"m.s-1","parameterCategory":1,"la1":30.2992,"la2":30.254,"lo1":-89.0895,"lo2":-89.0443,"dy":0.0025,"dx":0.0025,"nx":19,"ny":19,"refTime":"2026-03-26T09:00:00:Z","depth":0,"parameterNumber":3,"parameterNumberName":"V-component_of_WINDS"},"data":[0,0,0,4.0889,4.0891,4.0938,4.0938,4.1008,4.1009,0,0,0,0,0,0,0,0,0,0,0,4.0883,4.0884,4.0889,4.0891,4.0938,4.0938,4.1008,4.1009,0,0,0,0,0,0,0,0,0,0,0,4.0883,4.0883,4.0884,4.0891,4.0938,4.0938,4.1008,4.0968,0,0,0,0,0,0,0,0,0,0,4.0921,4.0922,4.0883,4.0884,4.0891,4.0938,4.0938,4.0966,4.0971,4.0992,0,4.1013,0,4.1013,4.1015,4.1015,0,0,0,4.0885,4.0919,4.0925,4.0885,4.0892,4.0938,4.0915,4.0969,4.0974,4.0998,4.1014,4.1017,4.1014,4.1015,4.1015,4.1159,4.116,0,0,4.0882,4.0895,4.0921,4.0929,4.0924,4.0914,4.0917,4.0972,4.099,4.1014,4.1018,4.1015,4.1016,4.1016,4.1158,4.1159,0,0,0,4.0879,4.0893,4.0898,4.0926,4.0934,4.0915,4.0918,4.0987,4.0988,4.1019,4.1016,4.1016,4.1017,4.1157,4.1158,4.1219,0,0,0,4.0877,4.0891,4.0897,4.0905,4.0933,4.0962,4.0933,4.0984,4.099,4.1015,4.1016,4.1018,4.1156,4.1158,4.1215,4.1245,0,0,0,4.0877,4.0891,4.0901,4.0906,4.0927,4.096,4.0964,4.0985,4.0989,4.1015,4.1018,4.1155,4.1157,4.1211,4.1239,4.1287,0,0,0,4.0881,4.0953,4.0902,4.0981,4.0927,4.0998,4.0963,4.1015,4.1045,4.1017,4.1156,4.1158,4.121,4.1236,4.1284,4.133,4.1351,0,0,4.0979,4.0965,4.1011,4.0967,4.1051,4.099,4.1082,4.1096,4.1085,4.1134,4.1138,4.1216,4.1239,4.1286,4.1461,4.1478,0,0,0,4.1046,4.1079,4.1098,4.1128,4.1142,4.1156,4.1155,4.116,4.1202,4.1114,4.1246,4.1259,4.1286,4.1308,4.1322,4.1345,4.1169,4.1168,4.1168,4.1203,4.1187,4.1262,4.1253,4.1282,4.1281,4.1303,4.1309,4.1283,4.1315,4.133,4.1438,4.1464,4.1474,4.1498,4.1353,4.1353,4.1353,4.1353,4.1345,4.139,4.1356,4.1416,4.1399,4.1448,4.145,4.143,4.1473,4.1425,4.1449,4.1398,4.1493,4.1513,4.1358,4.1357,4.1356,4.1356,4.1356,4.1447,4.1465,4.1472,4.1514,4.1548,4.1535,4.1579,4.156,4.1544,4.1567,4.158,4.1579,4.1576,4.1575,4.1575,4.1575,4.1576,4.1576,4.1576,4.155,4.1555,4.1595,4.1616,4.1633,4.1653,4.1653,4.1669,4.1682,4.1665,4.1665,4.1637,4.1505,4.1473,4.1582,4.1581,4.158,4.158,4.1579,4.1701,4.1664,4.1726,4.1743,4.1767,4.1802,4.1779,4.1813,4.1823,4.1845,4.1812,4.1717,4.1702,4.169,4.1663,4.1815,4.1815,4.1815,4.1815,4.1787,4.1777,4.1837,4.1866,4.1892,4.1878,4.1947,4.1948,4.1942,4.1947,4.1922,4.1885,4.1874,4.1865,4.185,4.1824,4.2013,4.2014,4.2014,4.1879,4.1871,4.1935,4.193,4.1947,4.1962,4.2027,4.2061,4.2046,4.2021,4.1951,4.1943,4.1882,4.1863,4.1837,4.1814,4.1767,0,0]}]]